Flag for Denmark Weather past 2 weeks in Roskilde, Denmark

Now
34 °F

Fog.


Feels Like: 26 °F
Forecast: 32 / 41 °F
Wind: 9 mph from Northwest

Location: Koebenhavn / Roskilde

Current Time: Mar 5, 2015 at 12:44:07 AM

Latest Report: Mar 5, 2015 at 12:20 AM


Visibility: 2 mi

Pressure: 30.21 "Hg

Humidity: 100%

Dew point: 34 °F

Location of RoskildeLocation

Historic Weather in Roskilde — Graph

°F

Roskilde temperature yesterday

Maximum temperature yesterday: 39 °F (at 10:20 AM)
Minimum temperature yesterday: 32 °F (at 12:50 AM)
Average temperature yesterday: 36 °F

Past Weeks' High & Low Weather Summary

 TemperatureHumidityPressure
High46 °F (Feb 26, 1:20 PM)100% (Feb 17, 11:20 PM)30.54 "Hg (Feb 17, 11:20 PM)
Low28 °F (Feb 26, 1:50 AM)65% (Feb 28, 12:50 PM)29.15 "Hg (Feb 21, 3:50 PM)
Average37 °F89%29.75 "Hg
* Reported Feb 17 11:20 PM — Mar 4 11:20 PM, Roskilde, Weather by CustomWeather, © 2015

Note: Actual official high and low records may vary slightly from our data, if they occured in-between our weather recording intervals... More about our weather records

Advertising

Roskilde weather history for previous 24 hours

 ConditionsComfort  
Time TempWeatherWind HumidityBarometerVisibility
11:20 PM
Wed, Mar 4
34 °FPassing clouds.7 mph100%30.18 "Hg6 mi
10:20 PM34 °FLight rain. Partly cloudy.10 mph100%30.15 "Hg5 mi
9:50 PM36 °FPassing clouds.12 mph93%30.12 "HgN/A
9:20 PM37 °FMostly cloudy.10 mph87%30.12 "HgN/A
8:50 PM37 °FOvercast.7 mph93%30.09 "HgN/A
8:20 PM36 °FOvercast.6 mph100%30.07 "HgN/A
7:50 PM36 °FPassing clouds.5 mph100%30.07 "HgN/A
7:20 PM36 °FPartly cloudy.1 mph100%30.04 "HgN/A
6:50 PM37 °FSprinkles. Overcast.2 mph93%30.04 "HgN/A
6:20 PM37 °FDrizzle. Overcast.2 mph93%30.01 "HgN/A
5:50 PM37 °FOvercast.2 mph93%30.01 "HgN/A
5:20 PM37 °FBroken clouds.1 mph93%29.98 "HgN/A
4:50 PM37 °FScattered clouds.1 mph93%29.98 "HgN/A
4:20 PM37 °FPartly sunny.5 mph93%29.95 "HgN/A
3:50 PM37 °FLight rain. Broken clouds.7 mph93%29.95 "HgN/A
3:20 PM39 °FBroken clouds.8 mph81%29.95 "HgN/A
2:50 PM39 °FSprinkles. Partly sunny.8 mph87%29.92 "HgN/A
2:20 PM37 °FBroken clouds.14 mph93%29.92 "HgN/A
1:50 PM39 °FPartly sunny.13 mph87%29.92 "HgN/A
1:20 PM39 °FSprinkles. Cloudy.13 mph93%29.92 "HgN/A
12:50 PM37 °FSprinkles. Cloudy.9 mph100%29.92 "HgN/A
12:20 PM36 °FSprinkles. Broken clouds.14 mph93%29.92 "HgN/A
11:50 AM37 °FSprinkles. Partly sunny.14 mph93%29.92 "HgN/A
11:20 AM37 °FLight rain. Broken clouds.15 mph93%29.89 "HgN/A
10:50 AM37 °FBroken clouds.13 mph93%29.89 "HgN/A
10:20 AM39 °FChilly.12 mph87%29.89 "HgN/A
9:50 AM37 °FChilly.9 mph87%29.89 "HgN/A
9:20 AM37 °FChilly.9 mph87%29.89 "HgN/A
8:50 AM36 °FChilly.8 mph87%29.89 "HgN/A
8:20 AM34 °FChilly.8 mph93%29.86 "HgN/A
7:50 AM32 °FChilly.8 mph100%29.86 "HgN/A
7:20 AM32 °FChilly.8 mph100%29.86 "HgN/A
6:50 AM32 °FChilly.8 mph100%29.86 "HgN/A
6:20 AM32 °FChilly.8 mph100%29.86 "HgN/A
5:50 AM34 °FPassing clouds.7 mph93%29.83 "HgN/A
5:20 AM34 °FPassing clouds.8 mph93%29.83 "HgN/A
4:50 AM34 °FPassing clouds.8 mph93%29.83 "HgN/A
4:20 AM34 °FMostly cloudy.9 mph100%29.83 "HgN/A
3:50 AM34 °FMostly cloudy.7 mph93%29.80 "HgN/A
3:20 AM34 °FPassing clouds.8 mph100%29.80 "HgN/A
2:50 AM34 °FMostly cloudy.8 mph100%29.80 "HgN/A
2:20 AM34 °FMostly cloudy.9 mph100%29.80 "HgN/A
1:50 AM34 °FSprinkles. Overcast.8 mph93%29.80 "HgN/A
1:20 AM32 °FLight snow. Overcast.7 mph100%29.80 "Hg2 mi
12:50 AM32 °FLight snow. Dense fog.7 mph100%29.80 "Hg2 mi
12:20 AM34 °FLight snow. Overcast.7 mph93%29.77 "Hg3 mi
Weather by CustomWeather, © 2015

See weather overviewHow to use our weather pages